Location: Köln
(50.9375°N, 6.9603°E)
Time: 19:05:49
(UTC+01:00)

ISS - Pass Details

Date: 13 November 2025
Orbit: 414 x 421 km, 51.6° (Epoch: 07 November)

Event Time Altitude Azimuth Distance (km) Brightness Sun altitude
Rises 19:44:07 0° 232° (SW) 2,342 0.7 -27.7°
Reaches altitude 10° 19:46:16 10° 225° (SW) 1,483 -0.5 -28.1°
Enters shadow 19:46:19 10° 225° (SW) 1,463 -0.6 -28.1°
